Time,TemperatureF,DewpointF,PressureIn,WindDirection,WindDirectionDegrees,WindSpeedMPH,WindSpeedGustMPH,Humidity,HourlyPrecipIn,Conditions,Clouds,dailyrainin,SoftwareType,DateUTC
2013-02-01 17:22:00,23.0,6.0,29.93,North,355,6.0,8.0,47,0.00,,,0.22,,2013-02-01 22:22:00,
2013-02-01 17:32:00,23.0,7.0,29.94,NNW,342,3.0,7.0,49,0.00,,,0.22,,2013-02-01 22:32:00,
2013-02-01 17:42:00,23.0,7.0,29.94,NNW,342,3.0,7.0,49,0.00,,,0.22,,2013-02-01 22:42:00,
2013-02-01 17:52:00,23.0,8.0,29.96,North,360,4.0,9.0,51,0.00,,,0.22,,2013-02-01 22:52:00,
2013-02-01 18:02:00,23.0,8.0,29.96,NNW,341,3.0,9.0,51,0.00,,,0.22,,2013-02-01 23:02:00,
2013-02-01 18:11:00,23.0,8.0,29.96,NNW,341,3.0,9.0,51,0.00,,,0.22,,2013-02-01 23:11:00,
2013-02-01 18:22:00,22.0,6.0,29.98,NNW,337,5.0,9.0,50,0.00,,,0.22,,2013-02-01 23:22:00,
2013-02-01 18:32:00,22.0,7.0,29.99,North,355,2.0,7.0,52,0.00,,,0.22,,2013-02-01 23:32:00,
2013-02-01 18:42:00,22.0,7.0,29.99,North,355,2.0,7.0,52,0.00,,,0.22,,2013-02-01 23:42:00,
2013-02-01 18:52:00,22.0,8.0,30.01,NW,321,2.0,5.0,54,0.00,,,0.22,,2013-02-01 23:52:00,
2013-02-01 19:02:00,21.0,7.0,30.02,NNW,344,1.0,7.0,54,0.00,,,0.22,,2013-02-02 00:02:00,
2013-02-01 19:11:00,21.0,7.0,30.02,NNW,344,1.0,7.0,54,0.00,,,0.22,,2013-02-02 00:11:00,
2013-02-01 19:22:00,21.0,7.0,30.03,North,355,1.0,6.0,54,0.00,,,0.21,,2013-02-02 00:22:00,
2013-02-01 19:32:00,21.0,7.0,30.03,NNW,342,1.0,6.0,54,0.00,,,0.21,,2013-02-02 00:32:00,
2013-02-01 19:42:00,21.0,7.0,30.03,NNW,342,1.0,6.0,54,0.00,,,0.21,,2013-02-02 00:42:00,
2013-02-01 19:52:00,21.0,7.0,30.03,NNW,342,1.0,6.0,54,0.00,,,0.21,,2013-02-02 00:52:00,
2013-02-01 20:02:00,21.0,7.0,30.05,NNE,18,2.0,8.0,54,0.00,,,0.21,,2013-02-02 01:02:00,
2013-02-01 20:11:00,21.0,7.0,30.05,NNE,18,2.0,8.0,54,0.00,,,0.21,,2013-02-02 01:11:00,
2013-02-01 20:22:00,20.0,5.0,30.05,ENE,69,3.0,5.0,52,0.00,,,0.20,,2013-02-02 01:22:00,
2013-02-01 20:32:00,20.0,5.0,30.06,North,5,3.0,7.0,52,0.00,,,0.20,,2013-02-02 01:32:00,
2013-02-01 20:42:00,20.0,5.0,30.06,North,5,3.0,7.0,52,0.00,,,0.20,,2013-02-02 01:42:00,
2013-02-01 20:52:00,20.0,5.0,30.07,North,9,3.0,9.0,51,0.00,,,0.20,,2013-02-02 01:52:00,
2013-02-01 21:01:00,20.0,5.0,30.08,NW,323,2.0,5.0,51,0.00,,,0.20,,2013-02-02 02:01:00,
2013-02-01 21:11:00,20.0,5.0,30.08,NW,323,2.0,5.0,51,0.00,,,0.20,,2013-02-02 02:11:00,
2013-02-01 21:22:00,19.0,4.0,30.09,North,10,2.0,8.0,52,0.00,,,0.20,,2013-02-02 02:22:00,
2013-02-01 21:32:00,19.0,5.0,30.09,NE,38,1.0,7.0,54,0.00,,,0.20,,2013-02-02 02:32:00,
2013-02-01 21:42:00,19.0,5.0,30.09,NE,38,1.0,7.0,54,0.00,,,0.20,,2013-02-02 02:42:00,
2013-02-01 21:52:00,19.0,6.0,30.09,North,350,1.0,4.0,56,0.00,,,0.20,,2013-02-02 02:52:00,
2013-02-01 22:02:00,19.0,6.0,30.10,NNW,333,3.0,6.0,57,0.00,,,0.20,,2013-02-02 03:02:00,
2013-02-01 22:11:00,19.0,6.0,30.10,NNW,333,3.0,6.0,57,0.00,,,0.20,,2013-02-02 03:11:00,
2013-02-01 22:22:00,19.0,7.0,30.10,NNW,331,2.0,6.0,58,0.00,,,0.20,,2013-02-02 03:22:00,
2013-02-01 22:32:00,19.0,7.0,30.11,NNW,344,4.0,7.0,59,0.00,,,0.20,,2013-02-02 03:32:00,
2013-02-01 22:42:00,19.0,7.0,30.12,NNW,338,3.0,8.0,60,0.00,,,0.20,,2013-02-02 03:42:00,
2013-02-01 22:52:00,19.0,7.0,30.12,NNW,338,3.0,8.0,60,0.00,,,0.20,,2013-02-02 03:52:00,
2013-02-01 23:02:00,18.0,7.0,30.12,North,355,1.0,5.0,62,0.00,,,0.20,,2013-02-02 04:02:00,
2013-02-01 23:11:00,18.0,7.0,30.12,North,355,1.0,5.0,62,0.00,,,0.20,,2013-02-02 04:11:00,
2013-02-01 23:22:00,18.0,7.0,30.12,NNW,330,1.0,5.0,62,0.00,,,0.20,,2013-02-02 04:22:00,
2013-02-01 23:32:00,18.0,8.0,30.12,NW,320,2.0,5.0,63,0.00,,,0.20,,2013-02-02 04:32:00,
2013-02-01 23:42:00,18.0,8.0,30.12,NW,320,2.0,5.0,63,0.00,,,0.20,,2013-02-02 04:42:00,
2013-02-01 23:52:00,18.0,8.0,30.13,NNW,342,2.0,4.0,63,0.00,,,0.20,,2013-02-02 04:52:00,